Flag for U.S.A. Weather past 2 weeks in Aurora, Colorado, U.S.A.

Now
73 °F

Passing clouds.


Feels Like: 76 °F
Forecast: 56 / 84 °F
Wind: 6 mph from East

Location: Buckley Air Force Base

Current Time: Sep 16, 2014 at 7:46:32 PM

Latest Report: Sep 16, 2014 at 6:58 PM


Visibility: 10 mi

Pressure: 29.93 "Hg

Humidity: 29%

Dew point: 39 °F

Location of AuroraLocation

Historic Weather in Aurora — Graph

°F

Aurora temperature yesterday

Maximum temperature yesterday: 74 °F (at 4:58 PM)
Minimum temperature yesterday: 47 °F (at 6:58 AM)
Average temperature yesterday: 59 °F

Past Weeks' High & Low Weather Summary

 TemperatureHumidityPressure
High92 °F (Sep 3, 3:58 PM)100% (Sep 6, 4:58 AM)30.51 "Hg (Sep 6, 4:58 AM)
Low32 °F (Sep 12, 5:58 AM)11% (Sep 3, 3:58 PM)29.59 "Hg (Sep 3, 5:58 PM)
Average61 °F62%30.00 "Hg
* Reported Sep 1 5:58 PM — Sep 16 5:58 PM, Aurora, Weather by CustomWeather, © 2014

Note: Actual official high and low records may vary slightly from our data, if they occured in-between our weather recording intervals... More about our weather records

Advertising

Aurora weather history for previous 24 hours

 ConditionsComfort  
Time TempWeatherWind HumidityBarometerVisibility
5:58 PM
Sep 16
81 °FScattered clouds.8 mph22%29.91 "Hg10 mi
4:58 PM84 °FScattered clouds.8 mph18%29.91 "Hg10 mi
3:58 PM86 °FScattered clouds.8 mph16%29.91 "Hg10 mi
2:58 PM85 °FScattered clouds.6 mph17%29.93 "Hg10 mi
1:58 PM85 °FPassing clouds.7 mph17%29.95 "Hg10 mi
12:58 PM83 °FPassing clouds.2 mph17%29.97 "Hg10 mi
11:58 AM82 °FPassing clouds.6 mph18%30.00 "Hg10 mi
10:58 AM78 °FPassing clouds.2 mph25%30.01 "Hg10 mi
9:58 AM74 °FPassing clouds.5 mph36%30.03 "Hg10 mi
8:58 AM68 °FPassing clouds.12 mph46%30.03 "Hg10 mi
7:58 AM62 °FPassing clouds.12 mph52%30.04 "Hg10 mi
6:58 AM57 °FPassing clouds.10 mph61%30.04 "Hg10 mi
5:58 AM57 °FClear.10 mph64%30.02 "Hg10 mi
4:58 AM53 °FClear.9 mph74%30.01 "Hg10 mi
3:58 AM55 °FClear.9 mph71%30.02 "Hg10 mi
2:58 AM56 °FClear.10 mph72%30.02 "Hg10 mi
1:58 AM56 °FClear.14 mph76%30.04 "Hg10 mi
12:58 AM57 °FClear.14 mph76%30.06 "Hg10 mi
11:58 PM
Sep 15
56 °FClear.9 mph80%30.09 "Hg10 mi
10:58 PM58 °FClear.9 mph75%30.11 "Hg10 mi
9:58 PM60 °FClear.9 mph71%30.13 "Hg10 mi
8:58 PM61 °FPassing clouds.8 mph69%30.13 "Hg10 mi
7:58 PM62 °FScattered clouds.2 mph63%30.13 "Hg10 mi
Weather by CustomWeather, © 2014

See weather overviewHow to use our weather pages